Time,TemperatureF,DewpointF,PressureIn,WindDirection,WindDirectionDegrees,WindSpeedMPH,WindSpeedGustMPH,Humidity,HourlyPrecipIn,Conditions,Clouds,dailyrainin,SoftwareType,DateUTC
2013-02-04 00:00:00,27.6,15.6,29.56,WSW,248,4.0,17.2,60,0.00,,,0.00,WUHU216HW,2013-02-04 05:00:00,
2013-02-04 00:01:00,27.5,15.0,29.56,NW,315,4.0,7.3,59,0.00,,,0.00,WUHU216HW,2013-02-04 05:01:00,
2013-02-04 00:02:00,27.5,15.0,29.56,WNW,293,8.0,8.0,59,0.00,,,0.00,WUHU216HW,2013-02-04 05:02:00,
2013-02-04 00:07:00,27.3,14.8,29.56,SSW,203,3.5,13.8,59,0.00,,,0.00,WUHU216HW,2013-02-04 05:07:00,
2013-02-04 00:13:00,27.1,14.6,29.57,WNW,293,8.5,13.8,59,0.00,,,0.00,WUHU216HW,2013-02-04 05:13:00,
2013-02-04 00:18:00,27.1,14.2,29.56,WNW,293,2.4,19.9,58,0.00,,,0.00,WUHU216HW,2013-02-04 05:18:00,
2013-02-04 00:23:00,27.1,14.2,29.57,WSW,248,8.7,19.9,58,0.00,,,0.00,WUHU216HW,2013-02-04 05:23:00,
2013-02-04 00:28:00,26.9,14.4,29.56,West,270,8.2,11.1,59,0.00,,,0.00,WUHU216HW,2013-02-04 05:28:00,
2013-02-04 00:32:00,26.7,14.3,29.56,WSW,248,13.1,13.6,59,0.00,,,0.00,WUHU216HW,2013-02-04 05:32:00,
2013-02-04 00:37:00,26.7,13.8,29.57,South,180,9.3,13.6,58,0.00,,,0.00,WUHU216HW,2013-02-04 05:37:00,
2013-02-04 00:42:00,26.4,13.5,29.57,WNW,293,5.5,12.5,58,0.00,,,0.00,WUHU216HW,2013-02-04 05:42:00,
2013-02-04 00:47:00,26.4,13.5,29.57,WNW,293,6.9,12.0,58,0.00,,,0.00,WUHU216HW,2013-02-04 05:47:00,
2013-02-04 00:53:00,26.2,13.3,29.57,West,270,3.1,10.9,58,0.00,,,0.00,WUHU216HW,2013-02-04 05:53:00,
2013-02-04 00:58:00,26.0,13.2,29.58,NW,315,7.8,8.0,58,0.00,,,0.00,WUHU216HW,2013-02-04 05:58:00,
2013-02-04 01:03:00,25.8,13.0,29.58,NW,315,11.4,11.4,58,0.00,,,0.00,WUHU216HW,2013-02-04 06:03:00,
2013-02-04 01:08:00,25.8,13.0,29.58,West,270,7.8,11.4,58,0.00,,,0.00,WUHU216HW,2013-02-04 06:08:00,
2013-02-04 01:13:00,25.7,13.3,29.58,WNW,293,5.1,11.4,59,0.00,,,0.00,WUHU216HW,2013-02-04 06:13:00,
2013-02-04 01:18:00,25.5,13.1,29.58,SW,225,4.6,6.9,59,0.00,,,0.00,WUHU216HW,2013-02-04 06:18:00,
2013-02-04 01:23:00,25.5,13.1,29.58,WSW,248,6.4,8.9,59,0.00,,,0.00,WUHU216HW,2013-02-04 06:23:00,
2013-02-04 01:28:00,25.3,12.9,29.58,WNW,293,5.1,10.2,59,0.00,,,0.00,WUHU216HW,2013-02-04 06:28:00,
2013-02-04 01:33:00,25.3,13.4,29.58,WNW,293,6.4,10.2,60,0.00,,,0.00,WUHU216HW,2013-02-04 06:33:00,
2013-02-04 01:38:00,25.1,13.2,29.59,West,270,5.5,11.6,60,0.00,,,0.00,WUHU216HW,2013-02-04 06:38:00,
2013-02-04 01:42:00,24.9,13.0,29.59,NW,315,10.9,11.6,60,0.00,,,0.00,WUHU216HW,2013-02-04 06:42:00,
2013-02-04 01:48:00,24.8,12.9,29.59,West,270,6.0,10.9,60,0.00,,,0.00,WUHU216HW,2013-02-04 06:48:00,
2013-02-04 01:53:00,24.6,12.3,29.59,West,270,3.8,11.4,59,0.00,,,0.00,WUHU216HW,2013-02-04 06:53:00,
2013-02-04 01:58:00,24.6,12.3,29.59,NW,315,10.9,11.4,59,0.00,,,0.00,WUHU216HW,2013-02-04 06:58:00,
2013-02-04 02:02:00,24.4,12.1,29.59,NNW,338,8.5,10.9,59,0.00,,,0.00,WUHU216HW,2013-02-04 07:02:00,
2013-02-04 02:07:00,24.2,12.1,29.59,NW,315,1.3,10.7,59,0.00,,,0.00,WUHU216HW,2013-02-04 07:07:00,
2013-02-04 02:13:00,24.0,11.7,29.59,WSW,248,0.0,10.7,59,0.00,,,0.00,WUHU216HW,2013-02-04 07:13:00,
2013-02-04 02:18:00,24.0,11.7,29.60,WNW,293,8.2,9.3,59,0.00,,,0.00,WUHU216HW,2013-02-04 07:18:00,
2013-02-04 02:23:00,23.9,11.6,29.60,NNW,338,2.4,8.2,59,0.00,,,0.00,WUHU216HW,2013-02-04 07:23:00,
2013-02-04 02:28:00,23.9,11.6,29.60,NW,315,5.3,7.6,59,0.00,,,0.00,WUHU216HW,2013-02-04 07:28:00,
2013-02-04 02:33:00,23.7,11.8,29.60,WNW,293,6.4,6.4,60,0.00,,,0.00,WUHU216HW,2013-02-04 07:33:00,
2013-02-04 02:38:00,23.7,11.4,29.60,NW,315,5.8,9.8,59,0.00,,,0.00,WUHU216HW,2013-02-04 07:38:00,
2013-02-04 02:43:00,23.5,11.6,29.60,NW,315,0.0,9.8,60,0.00,,,0.00,WUHU216HW,2013-02-04 07:43:00,
2013-02-04 02:48:00,23.5,11.6,29.61,NW,315,3.3,8.2,60,0.00,,,0.00,WUHU216HW,2013-02-04 07:48:00,
2013-02-04 02:53:00,23.5,11.6,29.61,WNW,293,4.2,10.7,60,0.00,,,0.00,WUHU216HW,2013-02-04 07:53:00,
2013-02-04 02:58:00,23.7,11.8,29.61,WNW,293,0.0,10.7,60,0.00,,,0.00,WUHU216HW,2013-02-04 07:58:00,
2013-02-04 03:03:00,23.7,11.8,29.61,WNW,293,0.0,7.3,60,0.00,,,0.00,WUHU216HW,2013-02-04 08:03:00,
2013-02-04 03:08:00,23.7,11.8,29.61,West,270,0.0,4.9,60,0.00,,,0.00,WUHU216HW,2013-02-04 08:08:00,
2013-02-04 03:13:00,23.9,12.0,29.60,West,270,0.0,7.3,60,0.00,,,0.00,WUHU216HW,2013-02-04 08:13:00,
2013-02-04 03:17:00,23.9,12.3,29.60,WNW,293,0.0,7.3,61,0.00,,,0.00,WUHU216HW,2013-02-04 08:17:00,
2013-02-04 03:22:00,23.9,12.3,29.60,West,270,0.0,8.7,61,0.00,,,0.00,WUHU216HW,2013-02-04 08:22:00,
2013-02-04 03:27:00,23.9,12.3,29.60,WNW,293,0.0,8.7,61,0.00,,,0.00,WUHU216HW,2013-02-04 08:27:00,
2013-02-04 03:32:00,23.9,12.3,29.60,WNW,293,2.0,4.6,61,0.00,,,0.00,WUHU216HW,2013-02-04 08:32:00,
2013-02-04 03:37:00,23.9,12.7,29.60,West,270,0.0,5.1,62,0.00,,,0.00,WUHU216HW,2013-02-04 08:37:00,
2013-02-04 03:42:00,23.9,12.7,29.60,WNW,293,1.1,5.1,62,0.00,,,0.00,WUHU216HW,2013-02-04 08:42:00,
2013-02-04 03:47:00,23.9,12.3,29.60,NW,315,4.4,6.7,61,0.00,,,0.00,WUHU216HW,2013-02-04 08:47:00,
2013-02-04 03:52:00,23.9,12.3,29.60,NNW,338,4.6,6.7,61,0.00,,,0.00,WUHU216HW,2013-02-04 08:52:00,
2013-02-04 03:57:00,23.9,12.3,29.60,NNW,338,4.0,6.4,61,0.00,,,0.00,WUHU216HW,2013-02-04 08:57:00,
2013-02-04 04:02:00,23.9,12.7,29.60,WNW,293,0.0,7.1,62,0.00,,,0.00,WUHU216HW,2013-02-04 09:02:00,
2013-02-04 04:07:00,23.9,12.7,29.61,WNW,293,0.0,8.2,62,0.00,,,0.00,WUHU216HW,2013-02-04 09:07:00,
2013-02-04 04:12:00,23.7,12.5,29.61,WNW,293,4.4,10.5,62,0.00,,,0.00,WUHU216HW,2013-02-04 09:12:00,
2013-02-04 04:17:00,23.9,12.7,29.61,WNW,293,0.0,10.5,62,0.00,,,0.00,WUHU216HW,2013-02-04 09:17:00,
2013-02-04 04:22:00,23.9,12.7,29.61,NW,315,0.0,7.6,62,0.00,,,0.00,WUHU216HW,2013-02-04 09:22:00,
2013-02-04 04:27:00,23.9,13.0,29.61,WNW,293,2.6,7.6,63,0.00,,,0.00,WUHU216HW,2013-02-04 09:27:00,
2013-02-04 04:32:00,23.9,13.0,29.61,WNW,293,11.1,11.1,63,0.00,,,0.00,WUHU216HW,2013-02-04 09:32:00,
2013-02-04 04:37:00,23.9,13.0,29.61,West,270,0.0,11.1,63,0.00,,,0.00,WUHU216HW,2013-02-04 09:37:00,
2013-02-04 04:42:00,23.9,13.0,29.61,NW,315,0.0,6.4,63,0.00,,,0.00,WUHU216HW,2013-02-04 09:42:00,
2013-02-04 04:47:00,23.9,13.0,29.61,WNW,293,2.2,10.5,63,0.00,,,0.00,WUHU216HW,2013-02-04 09:47:00,
2013-02-04 04:52:00,24.0,12.8,29.61,NW,315,2.6,10.5,62,0.00,,,0.00,WUHU216HW,2013-02-04 09:52:00,
2013-02-04 04:57:00,24.0,12.8,29.62,WNW,293,0.0,5.5,62,0.00,,,0.00,WUHU216HW,2013-02-04 09:57:00,
2013-02-04 05:02:00,24.0,12.8,29.61,NW,315,0.0,7.1,62,0.00,,,0.00,WUHU216HW,2013-02-04 10:02:00,
2013-02-04 05:07:00,24.0,12.8,29.61,NW,315,3.1,7.1,62,0.00,,,0.00,WUHU216HW,2013-02-04 10:07:00,
2013-02-04 05:12:00,24.0,12.8,29.61,NW,315,0.0,7.1,62,0.00,,,0.00,WUHU216HW,2013-02-04 10:12:00,
2013-02-04 05:17:00,24.0,12.8,29.61,WNW,293,0.0,7.1,62,0.00,,,0.00,WUHU216HW,2013-02-04 10:17:00,
2013-02-04 05:22:00,23.9,12.7,29.61,NW,315,2.4,7.3,62,0.00,,,0.00,WUHU216HW,2013-02-04 10:22:00,
2013-02-04 05:27:00,23.9,12.7,29.61,WNW,293,2.2,7.3,62,0.00,,,0.00,WUHU216HW,2013-02-04 10:27:00,
2013-02-04 05:32:00,23.9,12.5,29.61,NNW,338,0.0,9.8,62,0.00,,,0.00,WUHU216HW,2013-02-04 10:32:00,
2013-02-04 05:37:00,23.7,12.1,29.61,NW,315,5.5,9.8,61,0.00,,,0.00,WUHU216HW,2013-02-04 10:37:00,
2013-02-04 05:42:00,23.7,12.1,29.62,WNW,293,0.0,5.5,61,0.00,,,0.00,WUHU216HW,2013-02-04 10:42:00,
2013-02-04 05:47:00,23.5,12.0,29.62,WNW,293,0.0,5.5,61,0.00,,,0.00,WUHU216HW,2013-02-04 10:47:00,
2013-02-04 05:52:00,23.5,12.0,29.62,WNW,293,1.5,6.0,61,0.00,,,0.00,WUHU216HW,2013-02-04 10:52:00,
2013-02-04 05:57:00,23.5,12.0,29.62,WNW,293,6.0,10.9,61,0.00,,,0.00,WUHU216HW,2013-02-04 10:57:00,
2013-02-04 06:02:00,23.5,12.0,29.62,NNW,338,0.0,10.9,61,0.00,,,0.00,WUHU216HW,2013-02-04 11:02:00,
2013-02-04 06:07:00,23.5,12.0,29.62,WNW,293,0.0,2.6,61,0.00,,,0.00,WUHU216HW,2013-02-04 11:07:00,
2013-02-04 06:12:00,23.5,11.6,29.62,West,270,0.0,9.8,60,0.00,,,0.00,WUHU216HW,2013-02-04 11:12:00,
2013-02-04 06:18:00,23.7,11.8,29.63,WNW,293,0.0,9.8,60,0.00,,,0.00,WUHU216HW,2013-02-04 11:18:00,
2013-02-04 06:23:00,23.7,11.8,29.63,West,270,0.0,7.8,60,0.00,,,0.00,WUHU216HW,2013-02-04 11:23:00,
2013-02-04 06:28:00,23.7,11.8,29.63,WNW,293,6.2,6.2,60,0.00,,,0.00,WUHU216HW,2013-02-04 11:28:00,
2013-02-04 06:33:00,23.9,11.8,29.64,WNW,293,0.0,6.2,60,0.00,,,0.00,WUHU216HW,2013-02-04 11:33:00,
2013-02-04 06:38:00,23.9,12.0,29.64,WNW,293,5.5,10.9,60,0.00,,,0.00,WUHU216HW,2013-02-04 11:38:00,
2013-02-04 06:43:00,24.0,12.2,29.64,NW,315,0.0,10.9,60,0.00,,,0.00,WUHU216HW,2013-02-04 11:43:00,
2013-02-04 06:48:00,24.0,12.2,29.65,NNW,338,6.4,8.2,60,0.00,,,0.00,WUHU216HW,2013-02-04 11:48:00,
2013-02-04 06:53:00,24.0,11.7,29.64,West,270,10.7,10.7,59,0.00,,,0.00,WUHU216HW,2013-02-04 11:53:00,
2013-02-04 06:58:00,24.2,11.9,29.64,WNW,293,3.8,11.1,59,0.00,,,0.00,WUHU216HW,2013-02-04 11:58:00,
2013-02-04 07:03:00,24.4,12.1,29.64,NNW,338,3.5,11.1,59,0.00,,,0.00,WUHU216HW,2013-02-04 12:03:00,
2013-02-04 07:08:00,24.0,11.9,29.64,NW,315,4.2,6.2,59,0.00,,,0.00,WUHU216HW,2013-02-04 12:08:00,
2013-02-04 07:13:00,24.0,11.7,29.64,WNW,293,5.8,10.0,59,0.00,,,0.00,WUHU216HW,2013-02-04 12:13:00,
2013-02-04 07:18:00,24.0,11.7,29.64,NNW,338,14.3,14.3,59,0.00,,,0.00,WUHU216HW,2013-02-04 12:18:00,
2013-02-04 07:23:00,24.0,11.7,29.65,WNW,293,8.5,14.3,59,0.00,,,0.00,WUHU216HW,2013-02-04 12:23:00,
2013-02-04 07:28:00,24.0,11.7,29.65,WNW,293,7.6,8.5,59,0.00,,,0.00,WUHU216HW,2013-02-04 12:28:00,
2013-02-04 07:33:00,24.0,12.2,29.66,WNW,293,4.9,8.5,60,0.00,,,0.00,WUHU216HW,2013-02-04 12:33:00,
2013-02-04 07:38:00,24.0,12.2,29.66,NNW,338,0.0,8.5,60,0.00,,,0.00,WUHU216HW,2013-02-04 12:38:00,
2013-02-04 07:43:00,24.4,12.5,29.67,WNW,293,0.0,9.3,60,0.00,,,0.00,WUHU216HW,2013-02-04 12:43:00,
2013-02-04 07:48:00,24.4,12.5,29.66,WNW,293,0.0,9.6,60,0.00,,,0.00,WUHU216HW,2013-02-04 12:48:00,
2013-02-04 07:53:00,24.4,12.7,29.67,West,270,0.0,9.6,60,0.00,,,0.00,WUHU216HW,2013-02-04 12:53:00,
2013-02-04 07:58:00,24.6,12.7,29.67,WNW,293,0.0,7.3,60,0.00,,,0.00,WUHU216HW,2013-02-04 12:58:00,
2013-02-04 08:03:00,24.9,13.0,29.67,WNW,293,9.8,9.8,60,0.00,,,0.00,WUHU216HW,2013-02-04 13:03:00,
2013-02-04 08:08:00,25.1,13.2,29.67,West,270,0.0,9.8,60,0.00,,,0.00,WUHU216HW,2013-02-04 13:08:00,
2013-02-04 08:13:00,25.1,13.2,29.67,WSW,248,0.0,2.4,60,0.00,,,0.00,WUHU216HW,2013-02-04 13:13:00,
2013-02-04 08:18:00,25.5,13.5,29.67,WSW,248,0.0,2.9,60,0.00,,,0.00,WUHU216HW,2013-02-04 13:18:00,
2013-02-04 08:23:00,26.2,14.5,29.67,West,270,0.0,2.9,61,0.00,,,0.00,WUHU216HW,2013-02-04 13:23:00,
2013-02-04 08:28:00,26.6,14.5,29.67,WNW,293,0.0,6.4,60,0.00,,,0.00,WUHU216HW,2013-02-04 13:28:00,
2013-02-04 08:33:00,27.1,14.6,29.67,WSW,248,0.0,6.4,59,0.00,,,0.00,WUHU216HW,2013-02-04 13:33:00,
2013-02-04 08:38:00,28.0,15.1,29.67,NW,315,4.2,4.4,58,0.00,,,0.00,WUHU216HW,2013-02-04 13:38:00,
2013-02-04 08:43:00,28.2,15.3,29.67,WSW,248,0.0,4.4,58,0.00,,,0.00,WUHU216HW,2013-02-04 13:43:00,
2013-02-04 08:48:00,28.9,15.5,29.67,NW,315,2.6,4.6,57,0.00,,,0.00,WUHU216HW,2013-02-04 13:48:00,
2013-02-04 08:53:00,29.3,15.4,29.67,WNW,293,2.4,4.6,56,0.00,,,0.00,WUHU216HW,2013-02-04 13:53:00,
2013-02-04 08:58:00,29.8,15.5,29.67,WNW,293,1.7,8.0,55,0.00,,,0.00,WUHU216HW,2013-02-04 13:58:00,
2013-02-04 09:03:00,30.0,15.7,29.67,WNW,293,2.2,8.0,55,0.00,,,0.00,WUHU216HW,2013-02-04 14:03:00,
2013-02-04 09:08:00,30.0,15.7,29.67,NNW,338,9.1,9.1,55,0.00,,,0.00,WUHU216HW,2013-02-04 14:08:00,
2013-02-04 09:13:00,30.0,15.7,29.67,West,270,2.4,9.1,55,0.00,,,0.00,WUHU216HW,2013-02-04 14:13:00,
2013-02-04 09:18:00,30.0,15.3,29.67,WNW,293,2.9,7.1,54,0.00,,,0.00,WUHU216HW,2013-02-04 14:18:00,
2013-02-04 09:24:00,30.0,15.3,29.67,West,270,4.2,10.2,54,0.00,,,0.00,WUHU216HW,2013-02-04 14:24:00,
2013-02-04 09:29:00,29.8,15.1,29.67,West,270,6.7,10.2,54,0.00,,,0.00,WUHU216HW,2013-02-04 14:29:00,
2013-02-04 09:34:00,29.4,14.4,29.67,NW,315,8.2,11.1,53,0.00,,,0.00,WUHU216HW,2013-02-04 14:34:00,
2013-02-04 09:39:00,29.1,14.5,29.68,WNW,293,8.2,11.1,54,0.00,,,0.00,WUHU216HW,2013-02-04 14:39:00,
2013-02-04 09:44:00,29.3,14.6,29.68,West,270,4.2,8.7,54,0.00,,,0.00,WUHU216HW,2013-02-04 14:44:00,
2013-02-04 09:49:00,29.4,14.8,29.67,WNW,293,9.8,11.6,54,0.00,,,0.00,WUHU216HW,2013-02-04 14:49:00,
2013-02-04 09:54:00,29.6,14.9,29.67,WNW,293,0.0,11.6,54,0.00,,,0.00,WUHU216HW,2013-02-04 14:54:00,
2013-02-04 09:59:00,29.8,15.1,29.67,WNW,293,0.0,11.1,54,0.00,,,0.00,WUHU216HW,2013-02-04 14:59:00,
2013-02-04 10:04:00,30.0,15.3,29.67,WNW,293,0.0,6.4,54,0.00,,,0.00,WUHU216HW,2013-02-04 15:04:00,
2013-02-04 10:09:00,30.3,15.6,29.68,NW,315,0.0,0.0,54,0.00,,,0.00,WUHU216HW,2013-02-04 15:09:00,
2013-02-04 10:14:00,30.7,15.9,29.67,SW,225,5.1,5.1,54,0.00,,,0.00,WUHU216HW,2013-02-04 15:14:00,
2013-02-04 10:19:00,30.9,15.7,29.67,WSW,248,2.0,8.5,53,0.00,,,0.00,WUHU216HW,2013-02-04 15:19:00,
2013-02-04 10:24:00,31.1,15.8,29.67,WNW,293,0.0,8.5,53,0.00,,,0.00,WUHU216HW,2013-02-04 15:24:00,
2013-02-04 10:29:00,31.6,16.5,29.67,WNW,293,0.0,7.8,53,0.00,,,0.00,WUHU216HW,2013-02-04 15:29:00,
2013-02-04 10:34:00,31.8,16.1,29.67,WNW,293,2.2,8.0,52,0.00,,,0.00,WUHU216HW,2013-02-04 15:34:00,
2013-02-04 10:39:00,31.8,16.1,29.67,West,270,0.0,8.0,52,0.00,,,0.00,WUHU216HW,2013-02-04 15:39:00,
2013-02-04 10:44:00,31.8,16.1,29.66,SW,225,0.0,3.5,52,0.00,,,0.00,WUHU216HW,2013-02-04 15:44:00,
2013-02-04 10:49:00,32.1,16.8,29.67,SW,225,0.0,3.5,52,0.00,,,0.00,WUHU216HW,2013-02-04 15:49:00,
2013-02-04 10:54:00,32.7,16.9,29.66,West,270,0.0,2.9,52,0.00,,,0.00,WUHU216HW,2013-02-04 15:54:00,
2013-02-04 10:59:00,33.4,17.6,29.66,WSW,248,0.0,2.4,52,0.00,,,0.00,WUHU216HW,2013-02-04 15:59:00,
2013-02-04 11:04:00,33.9,17.6,29.66,WNW,293,0.0,0.0,51,0.00,,,0.00,WUHU216HW,2013-02-04 16:04:00,
2013-02-04 11:09:00,34.1,16.8,29.66,SSW,203,5.3,6.2,49,0.00,,,0.00,WUHU216HW,2013-02-04 16:09:00,
2013-02-04 11:14:00,34.1,17.4,29.65,South,180,0.0,6.2,50,0.00,,,0.00,WUHU216HW,2013-02-04 16:14:00,
2013-02-04 11:19:00,34.3,17.0,29.64,SW,225,0.0,4.6,49,0.00,,,0.00,WUHU216HW,2013-02-04 16:19:00,
2013-02-04 11:23:00,34.3,17.0,29.65,South,180,0.0,4.6,49,0.00,,,0.00,WUHU216HW,2013-02-04 16:23:00,
2013-02-04 11:28:00,34.7,16.9,29.64,West,270,0.0,2.6,48,0.00,,,0.00,WUHU216HW,2013-02-04 16:28:00,
2013-02-04 11:33:00,35.0,16.7,29.64,West,270,0.0,6.4,47,0.00,,,0.00,WUHU216HW,2013-02-04 16:33:00,
2013-02-04 11:38:00,34.8,16.5,29.64,SW,225,0.0,6.4,47,0.00,,,0.00,WUHU216HW,2013-02-04 16:38:00,
2013-02-04 11:43:00,34.8,16.5,29.63,SSW,203,4.9,7.8,47,0.00,,,0.00,WUHU216HW,2013-02-04 16:43:00,
2013-02-04 11:48:00,35.2,16.9,29.63,SW,225,0.0,9.6,48,0.00,,,0.00,WUHU216HW,2013-02-04 16:48:00,
2013-02-04 11:53:00,35.7,17.4,29.63,WSW,248,0.0,9.6,47,0.00,,,0.00,WUHU216HW,2013-02-04 16:53:00,
2013-02-04 11:58:00,35.9,17.0,29.63,South,180,0.0,7.6,46,0.00,,,0.00,WUHU216HW,2013-02-04 16:58:00,
2013-02-04 12:03:00,35.7,16.9,29.62,SW,225,0.0,6.2,46,0.00,,,0.00,WUHU216HW,2013-02-04 17:03:00,
2013-02-04 12:08:00,35.4,17.1,29.61,West,270,0.0,6.2,47,0.00,,,0.00,WUHU216HW,2013-02-04 17:08:00,
2013-02-04 12:13:00,35.4,17.1,29.62,WSW,248,9.6,9.6,47,0.00,,,0.00,WUHU216HW,2013-02-04 17:13:00,
2013-02-04 12:18:00,35.2,16.9,29.62,SSE,158,0.0,9.6,47,0.00,,,0.00,WUHU216HW,2013-02-04 17:18:00,
2013-02-04 12:23:00,35.4,17.1,29.62,SSW,203,4.6,9.6,47,0.00,,,0.00,WUHU216HW,2013-02-04 17:23:00,
2013-02-04 12:28:00,36.1,17.7,29.61,SSW,203,0.0,9.6,47,0.00,,,0.00,WUHU216HW,2013-02-04 17:28:00,
2013-02-04 12:33:00,37.2,18.7,29.61,South,180,2.4,5.5,47,0.00,,,0.00,WUHU216HW,2013-02-04 17:33:00,
2013-02-04 12:38:00,37.2,17.7,29.61,SW,225,0.0,5.5,45,0.00,,,0.00,WUHU216HW,2013-02-04 17:38:00,
2013-02-04 12:43:00,37.2,18.2,29.60,South,180,2.9,5.5,46,0.00,,,0.00,WUHU216HW,2013-02-04 17:43:00,
2013-02-04 12:48:00,37.9,18.8,29.60,SE,135,0.0,6.4,46,0.00,,,0.00,WUHU216HW,2013-02-04 17:48:00,
2013-02-04 12:53:00,38.3,18.1,29.60,SW,225,4.2,6.4,44,0.00,,,0.00,WUHU216HW,2013-02-04 17:53:00,
2013-02-04 12:58:00,38.6,19.0,29.61,SSE,158,0.0,6.0,45,0.00,,,0.00,WUHU216HW,2013-02-04 17:58:00,
2013-02-04 13:04:00,39.3,19.6,29.60,South,180,0.0,5.5,45,0.00,,,0.00,WUHU216HW,2013-02-04 18:04:00,
2013-02-04 13:09:00,39.3,19.1,29.60,SSW,203,0.0,6.2,44,0.00,,,0.00,WUHU216HW,2013-02-04 18:09:00,
2013-02-04 13:14:00,39.2,19.1,29.59,South,180,4.9,6.2,44,0.00,,,0.00,WUHU216HW,2013-02-04 18:14:00,
2013-02-04 13:19:00,39.5,19.2,29.59,West,270,0.0,10.9,44,0.00,,,0.00,WUHU216HW,2013-02-04 18:19:00,
2013-02-04 13:24:00,39.9,19.0,29.58,SSW,203,0.0,10.9,43,0.00,,,0.00,WUHU216HW,2013-02-04 18:24:00,
2013-02-04 13:28:00,40.1,19.2,29.59,SW,225,0.0,9.1,43,0.00,,,0.00,WUHU216HW,2013-02-04 18:28:00,
2013-02-04 13:33:00,40.6,19.7,29.58,SSW,203,3.8,6.0,43,0.00,,,0.00,WUHU216HW,2013-02-04 18:33:00,
2013-02-04 13:38:00,40.8,19.9,29.58,South,180,0.0,10.7,43,0.00,,,0.00,WUHU216HW,2013-02-04 18:38:00,
2013-02-04 13:43:00,41.1,19.1,29.58,South,180,6.2,10.7,41,0.00,,,0.00,WUHU216HW,2013-02-04 18:43:00,
2013-02-04 13:48:00,41.1,19.7,29.58,SW,225,4.9,8.5,42,0.00,,,0.00,WUHU216HW,2013-02-04 18:48:00,
2013-02-04 13:53:00,40.8,19.3,29.58,South,180,0.0,8.5,42,0.00,,,0.00,WUHU216HW,2013-02-04 18:53:00,
2013-02-04 13:58:00,40.4,19.0,29.57,SW,225,0.0,0.0,42,0.00,,,0.00,WUHU216HW,2013-02-04 18:58:00,
2013-02-04 14:04:00,39.5,17.7,29.57,SE,135,0.0,8.2,41,0.00,,,0.00,WUHU216HW,2013-02-04 19:04:00,
2013-02-04 14:09:00,39.0,18.2,29.57,SW,225,0.0,8.2,43,0.00,,,0.00,WUHU216HW,2013-02-04 19:09:00,
2013-02-04 14:14:00,38.4,17.7,29.57,South,180,0.0,2.6,43,0.00,,,0.00,WUHU216HW,2013-02-04 19:14:00,
2013-02-04 14:19:00,38.1,17.4,29.57,South,180,0.0,4.6,43,0.00,,,0.00,WUHU216HW,2013-02-04 19:19:00,
2013-02-04 14:24:00,37.9,17.8,29.57,SSW,203,2.9,4.6,44,0.00,,,0.00,WUHU216HW,2013-02-04 19:24:00,
2013-02-04 14:29:00,37.7,17.6,29.57,WSW,248,0.0,3.8,44,0.00,,,0.00,WUHU216HW,2013-02-04 19:29:00,
2013-02-04 14:34:00,37.5,17.5,29.56,SW,225,0.0,3.8,44,0.00,,,0.00,WUHU216HW,2013-02-04 19:34:00,
2013-02-04 14:39:00,37.4,17.8,29.56,SSE,158,0.0,1.7,45,0.00,,,0.00,WUHU216HW,2013-02-04 19:39:00,
2013-02-04 14:44:00,37.4,17.8,29.56,South,180,0.0,0.0,45,0.00,,,0.00,WUHU216HW,2013-02-04 19:44:00,
2013-02-04 14:49:00,37.2,17.7,29.56,South,180,0.0,0.0,45,0.00,,,0.00,WUHU216HW,2013-02-04 19:49:00,
2013-02-04 14:54:00,37.5,18.0,29.55,South,180,1.7,1.7,45,0.00,,,0.00,WUHU216HW,2013-02-04 19:54:00,
2013-02-04 14:59:00,37.5,18.0,29.56,WSW,248,0.0,1.7,45,0.00,,,0.00,WUHU216HW,2013-02-04 19:59:00,
2013-02-04 15:04:00,37.5,18.0,29.55,South,180,0.0,0.0,45,0.00,,,0.00,WUHU216HW,2013-02-04 20:04:00,
2013-02-04 15:09:00,37.5,18.0,29.55,ESE,113,0.0,0.0,45,0.00,,,0.00,WUHU216HW,2013-02-04 20:09:00,
2013-02-04 15:14:00,37.5,18.0,29.55,SE,135,0.0,0.0,45,0.00,,,0.00,WUHU216HW,2013-02-04 20:14:00,
2013-02-04 15:19:00,37.5,18.0,29.55,ESE,113,0.0,0.0,45,0.00,,,0.00,WUHU216HW,2013-02-04 20:19:00,
2013-02-04 15:24:00,37.2,17.7,29.55,ESE,113,0.0,0.0,45,0.00,,,0.00,WUHU216HW,2013-02-04 20:24:00,
2013-02-04 15:29:00,37.2,17.7,29.55,SE,135,0.0,0.0,45,0.00,,,0.00,WUHU216HW,2013-02-04 20:29:00,
2013-02-04 15:34:00,37.2,17.7,29.55,SSE,158,0.0,0.0,45,0.00,,,0.00,WUHU216HW,2013-02-04 20:34:00,
2013-02-04 15:39:00,37.2,18.2,29.55,South,180,0.0,0.0,46,0.00,,,0.00,WUHU216HW,2013-02-04 20:39:00,
2013-02-04 15:44:00,37.0,18.0,29.55,South,180,0.0,0.0,46,0.00,,,0.00,WUHU216HW,2013-02-04 20:44:00,
2013-02-04 15:49:00,37.0,18.0,29.55,South,180,0.0,0.0,46,0.00,,,0.00,WUHU216HW,2013-02-04 20:49:00,
2013-02-04 15:54:00,36.6,17.7,29.56,South,180,0.0,0.0,46,0.00,,,0.00,WUHU216HW,2013-02-04 20:54:00,
2013-02-04 15:59:00,36.5,17.5,29.55,SE,135,0.0,0.0,46,0.00,,,0.00,WUHU216HW,2013-02-04 20:59:00,
2013-02-04 16:04:00,36.5,18.1,29.56,SE,135,0.0,0.0,47,0.00,,,0.00,WUHU216HW,2013-02-04 21:04:00,
2013-02-04 16:09:00,36.5,18.1,29.55,SE,135,0.0,0.0,47,0.00,,,0.00,WUHU216HW,2013-02-04 21:09:00,
2013-02-04 16:14:00,36.5,18.1,29.55,SE,135,0.0,0.0,47,0.00,,,0.00,WUHU216HW,2013-02-04 21:14:00,
2013-02-04 16:19:00,36.5,18.1,29.55,South,180,0.0,0.0,47,0.00,,,0.00,WUHU216HW,2013-02-04 21:19:00,
2013-02-04 16:24:00,36.5,18.1,29.55,South,180,0.0,0.0,47,0.00,,,0.00,WUHU216HW,2013-02-04 21:24:00,
2013-02-04 16:29:00,36.5,18.1,29.54,South,180,0.0,0.0,47,0.00,,,0.00,WUHU216HW,2013-02-04 21:29:00,
2013-02-04 16:34:00,36.5,18.1,29.54,South,180,0.0,0.0,47,0.00,,,0.00,WUHU216HW,2013-02-04 21:34:00,
2013-02-04 16:39:00,36.3,17.9,29.54,South,180,0.0,0.0,47,0.00,,,0.00,WUHU216HW,2013-02-04 21:39:00,
2013-02-04 16:44:00,36.3,18.4,29.54,South,180,0.0,0.0,48,0.00,,,0.00,WUHU216HW,2013-02-04 21:44:00,
2013-02-04 16:49:00,36.3,18.4,29.54,South,180,0.0,0.0,48,0.00,,,0.00,WUHU216HW,2013-02-04 21:49:00,
2013-02-04 16:54:00,36.3,18.4,29.54,South,180,0.0,0.0,48,0.00,,,0.00,WUHU216HW,2013-02-04 21:54:00,
2013-02-04 16:59:00,36.3,18.9,29.54,South,180,0.0,0.0,49,0.00,,,0.00,WUHU216HW,2013-02-04 21:59:00,
2013-02-04 17:04:00,36.1,18.8,29.54,South,180,0.0,0.0,49,0.00,,,0.00,WUHU216HW,2013-02-04 22:04:00,
2013-02-04 17:09:00,36.1,18.8,29.54,South,180,0.0,0.0,49,0.00,,,0.00,WUHU216HW,2013-02-04 22:09:00,
2013-02-04 17:14:00,35.7,18.5,29.54,East,90,0.0,0.0,49,0.00,,,0.00,WUHU216HW,2013-02-04 22:14:00,
2013-02-04 17:19:00,35.7,18.5,29.54,SE,135,0.0,0.0,49,0.00,,,0.00,WUHU216HW,2013-02-04 22:19:00,
2013-02-04 17:24:00,35.4,18.1,29.54,SE,135,0.0,0.0,49,0.00,,,0.00,WUHU216HW,2013-02-04 22:24:00,
2013-02-04 17:29:00,35.4,18.1,29.53,SE,135,0.0,0.0,49,0.00,,,0.00,WUHU216HW,2013-02-04 22:29:00,
2013-02-04 17:34:00,35.2,18.5,29.53,SE,135,0.0,0.0,50,0.00,,,0.00,WUHU216HW,2013-02-04 22:34:00,
2013-02-04 17:39:00,35.0,18.3,29.52,SE,135,0.0,0.0,50,0.00,,,0.00,WUHU216HW,2013-02-04 22:39:00,
2013-02-04 17:44:00,34.8,18.1,29.53,SSW,203,0.0,0.0,50,0.00,,,0.00,WUHU216HW,2013-02-04 22:44:00,
2013-02-04 17:49:00,34.8,18.5,29.52,South,180,0.0,0.0,51,0.00,,,0.00,WUHU216HW,2013-02-04 22:49:00,
2013-02-04 17:54:00,34.7,18.3,29.52,South,180,0.0,0.0,51,0.00,,,0.00,WUHU216HW,2013-02-04 22:54:00,
2013-02-04 17:59:00,34.7,18.3,29.52,SSE,158,3.5,3.5,51,0.00,,,0.00,WUHU216HW,2013-02-04 22:59:00,
2013-02-04 18:04:00,34.5,18.6,29.53,ESE,113,0.0,3.5,52,0.00,,,0.00,WUHU216HW,2013-02-04 23:04:00,
2013-02-04 18:09:00,34.5,18.6,29.53,ESE,113,0.0,1.3,52,0.00,,,0.00,WUHU216HW,2013-02-04 23:09:00,
2013-02-04 18:14:00,34.3,18.4,29.53,SE,135,0.0,0.0,52,0.00,,,0.00,WUHU216HW,2013-02-04 23:14:00,
2013-02-04 18:19:00,34.3,18.4,29.53,ESE,113,0.0,0.0,52,0.00,,,0.00,WUHU216HW,2013-02-04 23:19:00,
2013-02-04 18:24:00,34.3,18.8,29.53,ESE,113,0.0,0.0,53,0.00,,,0.00,WUHU216HW,2013-02-04 23:24:00,
2013-02-04 18:29:00,34.3,18.4,29.53,ESE,113,0.0,0.0,52,0.00,,,0.00,WUHU216HW,2013-02-04 23:29:00,
2013-02-04 18:34:00,34.3,18.8,29.54,ESE,113,0.0,0.0,53,0.00,,,0.00,WUHU216HW,2013-02-04 23:34:00,
2013-02-04 18:40:00,34.3,18.8,29.53,SE,135,0.0,7.8,53,0.00,,,0.00,WUHU216HW,2013-02-04 23:40:00,
2013-02-04 18:45:00,34.3,18.8,29.53,SE,135,0.0,7.8,53,0.00,,,0.00,WUHU216HW,2013-02-04 23:45:00,
2013-02-04 18:50:00,34.3,18.8,29.53,SE,135,0.0,0.0,53,0.00,,,0.00,WUHU216HW,2013-02-04 23:50:00,
2013-02-04 18:55:00,34.3,18.8,29.53,SSW,203,0.0,0.0,53,0.00,,,0.00,WUHU216HW,2013-02-04 23:55:00,
2013-02-04 19:00:00,34.3,18.8,29.53,SE,135,2.4,4.4,53,0.00,,,0.00,WUHU216HW,2013-02-05 00:00:00,
2013-02-04 19:05:00,34.3,19.3,29.53,SE,135,0.0,4.2,54,0.00,,,0.00,WUHU216HW,2013-02-05 00:05:00,
2013-02-04 19:10:00,34.3,19.3,29.53,SE,135,0.0,5.3,54,0.00,,,0.00,WUHU216HW,2013-02-05 00:10:00,
2013-02-04 19:15:00,34.3,19.3,29.52,SE,135,0.0,5.3,54,0.00,,,0.00,WUHU216HW,2013-02-05 00:15:00,
2013-02-04 19:20:00,34.3,19.3,29.52,SSE,158,1.1,2.6,54,0.00,,,0.00,WUHU216HW,2013-02-05 00:20:00,
2013-02-04 19:25:00,34.3,19.3,29.52,SE,135,0.0,2.6,54,0.00,,,0.00,WUHU216HW,2013-02-05 00:25:00,
2013-02-04 19:30:00,34.3,19.3,29.52,ESE,113,0.0,1.3,54,0.00,,,0.00,WUHU216HW,2013-02-05 00:30:00,
2013-02-04 19:35:00,34.3,19.3,29.52,SE,135,0.0,1.3,54,0.00,,,0.00,WUHU216HW,2013-02-05 00:35:00,
2013-02-04 19:40:00,34.3,19.3,29.52,SSE,158,0.0,0.0,54,0.00,,,0.00,WUHU216HW,2013-02-05 00:40:00,
2013-02-04 19:45:00,34.1,19.5,29.53,SE,135,0.0,3.8,55,0.00,,,0.00,WUHU216HW,2013-02-05 00:45:00,
2013-02-04 19:50:00,34.1,19.5,29.53,South,180,0.0,3.8,55,0.00,,,0.00,WUHU216HW,2013-02-05 00:50:00,
2013-02-04 19:55:00,34.1,19.5,29.53,ESE,113,0.0,0.0,55,0.00,,,0.00,WUHU216HW,2013-02-05 00:55:00,
2013-02-04 20:00:00,34.1,19.5,29.52,WSW,248,0.0,0.0,55,0.00,,,0.00,WUHU216HW,2013-02-05 01:00:00,
2013-02-04 20:05:00,34.1,19.5,29.52,SW,225,0.0,0.0,55,0.00,,,0.00,WUHU216HW,2013-02-05 01:05:00,
2013-02-04 20:10:00,34.1,19.5,29.52,SW,225,0.0,0.0,55,0.00,,,0.00,WUHU216HW,2013-02-05 01:10:00,
2013-02-04 20:15:00,34.1,19.4,29.52,South,180,0.0,0.0,55,0.00,,,0.00,WUHU216HW,2013-02-05 01:15:00,
2013-02-04 20:20:00,33.9,19.4,29.52,South,180,0.0,0.0,55,0.00,,,0.00,WUHU216HW,2013-02-05 01:20:00,
2013-02-04 20:25:00,33.9,19.4,29.52,ESE,113,0.0,0.0,55,0.00,,,0.00,WUHU216HW,2013-02-05 01:25:00,
2013-02-04 20:30:00,33.9,19.4,29.52,ESE,113,0.0,0.0,55,0.00,,,0.00,WUHU216HW,2013-02-05 01:30:00,
2013-02-04 20:35:00,33.9,19.4,29.52,ESE,113,0.0,0.0,55,0.00,,,0.00,WUHU216HW,2013-02-05 01:35:00,
2013-02-04 20:40:00,33.9,19.8,29.52,SSE,158,0.0,0.0,56,0.00,,,0.00,WUHU216HW,2013-02-05 01:40:00,
2013-02-04 20:45:00,33.9,20.2,29.52,SE,135,0.0,0.0,57,0.00,,,0.00,WUHU216HW,2013-02-05 01:45:00,
2013-02-04 20:50:00,33.9,20.6,29.53,SSW,203,0.0,7.1,59,0.00,,,0.00,WUHU216HW,2013-02-05 01:50:00,
2013-02-04 20:55:00,33.6,21.2,29.53,ESE,113,0.0,7.1,60,0.00,,,0.00,WUHU216HW,2013-02-05 01:55:00,
2013-02-04 21:00:00,33.6,21.9,29.53,SSE,158,0.0,3.5,62,0.00,,,0.00,WUHU216HW,2013-02-05 02:00:00,
2013-02-04 21:05:00,33.4,22.4,29.53,SE,135,0.0,5.3,64,0.00,,,0.00,WUHU216HW,2013-02-05 02:05:00,
2013-02-04 21:10:00,32.9,22.3,29.53,SE,135,0.0,5.3,65,0.00,,,0.00,WUHU216HW,2013-02-05 02:10:00,
2013-02-04 21:16:00,32.7,22.9,29.52,ESE,113,0.0,0.0,67,0.00,,,0.00,WUHU216HW,2013-02-05 02:16:00,
2013-02-04 21:21:00,32.3,22.9,29.53,ESE,113,0.0,0.0,68,0.00,,,0.00,WUHU216HW,2013-02-05 02:21:00,
2013-02-04 21:26:00,32.1,22.8,29.52,SE,135,0.0,6.4,68,0.00,,,0.00,WUHU216HW,2013-02-05 02:26:00,
2013-02-04 21:31:00,31.8,22.8,29.52,ESE,113,0.0,6.4,69,0.00,,,0.00,WUHU216HW,2013-02-05 02:31:00,
2013-02-04 21:36:00,31.8,23.1,29.51,ESE,113,0.0,0.0,70,0.00,,,0.00,WUHU216HW,2013-02-05 02:36:00,
2013-02-04 21:41:00,31.6,23.0,29.52,ESE,113,0.0,0.0,70,0.00,,,0.00,WUHU216HW,2013-02-05 02:41:00,
2013-02-04 21:46:00,31.6,23.0,29.52,ESE,113,0.0,0.0,70,0.00,,,0.00,WUHU216HW,2013-02-05 02:46:00,
2013-02-04 21:51:00,31.6,23.3,29.52,ESE,113,0.0,0.0,71,0.00,,,0.00,WUHU216HW,2013-02-05 02:51:00,
2013-02-04 21:56:00,31.6,23.3,29.51,ESE,113,0.0,0.0,71,0.00,,,0.00,WUHU216HW,2013-02-05 02:56:00,
2013-02-04 22:01:00,31.6,23.3,29.51,ESE,113,0.0,0.0,71,0.00,,,0.00,WUHU216HW,2013-02-05 03:01:00,
2013-02-04 22:06:00,31.6,23.3,29.51,ESE,113,0.0,0.0,71,0.00,,,0.00,WUHU216HW,2013-02-05 03:06:00,
2013-02-04 22:11:00,31.6,23.6,29.51,ESE,113,0.0,0.0,71,0.00,,,0.00,WUHU216HW,2013-02-05 03:11:00,
2013-02-04 22:16:00,31.6,23.6,29.51,ESE,113,0.0,0.0,72,0.00,,,0.00,WUHU216HW,2013-02-05 03:16:00,
2013-02-04 22:21:00,31.6,23.6,29.51,ESE,113,0.0,0.0,72,0.00,,,0.00,WUHU216HW,2013-02-05 03:21:00,
2013-02-04 22:26:00,31.6,23.9,29.50,East,90,0.0,0.0,73,0.00,,,0.00,WUHU216HW,2013-02-05 03:26:00,
2013-02-04 22:31:00,31.6,23.9,29.50,East,90,0.0,0.0,73,0.00,,,0.00,WUHU216HW,2013-02-05 03:31:00,
2013-02-04 22:36:00,31.6,23.9,29.49,East,90,0.0,0.0,73,0.00,,,0.00,WUHU216HW,2013-02-05 03:36:00,
2013-02-04 22:41:00,31.8,24.1,29.49,East,90,0.0,0.0,73,0.00,,,0.00,WUHU216HW,2013-02-05 03:41:00,
2013-02-04 22:46:00,31.8,24.1,29.49,East,90,0.0,0.0,73,0.00,,,0.00,WUHU216HW,2013-02-05 03:46:00,
2013-02-04 22:51:00,31.8,24.1,29.49,ESE,113,0.0,0.0,73,0.00,,,0.00,WUHU216HW,2013-02-05 03:51:00,
2013-02-04 22:56:00,32.1,24.4,29.49,ESE,113,0.0,0.0,73,0.00,,,0.00,WUHU216HW,2013-02-05 03:56:00,
2013-02-04 23:01:00,32.1,24.4,29.49,South,180,0.0,0.0,73,0.00,,,0.00,WUHU216HW,2013-02-05 04:01:00,
2013-02-04 23:06:00,32.3,24.3,29.49,South,180,0.0,0.0,72,0.00,,,0.00,WUHU216HW,2013-02-05 04:06:00,
2013-02-04 23:11:00,32.3,24.3,29.49,South,180,0.0,0.0,72,0.00,,,0.00,WUHU216HW,2013-02-05 04:11:00,
2013-02-04 23:16:00,32.5,24.4,29.49,South,180,0.0,0.0,72,0.00,,,0.00,WUHU216HW,2013-02-05 04:16:00,
2013-02-04 23:21:00,32.5,24.4,29.49,South,180,0.0,0.0,72,0.00,,,0.00,WUHU216HW,2013-02-05 04:21:00,
2013-02-04 23:26:00,32.7,24.6,29.49,SSE,158,0.0,0.0,72,0.00,,,0.00,WUHU216HW,2013-02-05 04:26:00,
2013-02-04 23:32:00,32.7,24.6,29.48,SSE,158,0.0,0.0,72,0.00,,,0.00,WUHU216HW,2013-02-05 04:32:00,
2013-02-04 23:37:00,32.9,24.8,29.49,SSE,158,0.0,0.0,72,0.00,,,0.00,WUHU216HW,2013-02-05 04:37:00,
2013-02-04 23:42:00,32.9,24.4,29.48,SSE,158,0.0,0.0,71,0.00,,,0.00,WUHU216HW,2013-02-05 04:42:00,
2013-02-04 23:47:00,33.0,24.6,29.48,SSE,158,0.0,0.0,71,0.00,,,0.00,WUHU216HW,2013-02-05 04:47:00,
2013-02-04 23:52:00,33.0,24.6,29.48,SSE,158,0.0,0.0,71,0.00,,,0.00,WUHU216HW,2013-02-05 04:52:00,
2013-02-04 23:57:00,33.0,24.6,29.47,SSE,158,0.0,0.0,71,0.00,,,0.00,WUHU216HW,2013-02-05 04:57:00,